When you browse on this site, cookies collect data to enhance your experience and personalize the content and advertising you see.
Visit our Privacy Policy to learn more. By continuing to use the site, you agree to this use of cookies and data.
  • In Hungary
  • List of Countries
  • For 7 days
  • Water Temperature
  • Satellite Maps
  • Weather Map
  • News
  • Weather Widgets
  • user-avatar
    Login

    Hourly Weather Stuttgart

    Today, 21 April, Sunday

    Time Temperature Precipitation Wind Pressure Humidity
    00:00 +12°C° 0 mm 1 mps 741 mmHg 61%
    01:00 +11°C° 0 mm 1 mps 740 mmHg 61%
    02:00 +11°C° 0 mm 1 mps 740 mmHg 63%
    03:00 +10°C° 0 mm 1 mps 740 mmHg 64%
    04:00 +10°C° 0 mm 1 mps 739 mmHg 66%
    05:00 +10°C° 0 mm 1 mps 739 mmHg 65%
    06:00 +11°C° 0 mm 1 mps 739 mmHg 65%
    07:00 +11°C° 0 mm 1 mps 739 mmHg 65%
    08:00 +14°C° 0 mm 2 mps 739 mmHg 59%
    09:00 +16°C° 0 mm 2 mps 739 mmHg 52%
    10:00 +18°C° 0 mm 3 mps 738 mmHg 46%
    11:00 +19°C° 0 mm 3 mps 738 mmHg 43%
    12:00 +21°C° 0 mm 4 mps 738 mmHg 39%
    13:00 +22°C° 0 mm 4 mps 737 mmHg 36%
    14:00 +22°C° 0 mm 4 mps 737 mmHg 37%
    15:00 +22°C° 0 mm 4 mps 736 mmHg 38%
    16:00 +22°C° 0 mm 3 mps 735 mmHg 39%
    17:00 +20°C° 0 mm 3 mps 735 mmHg 45%
    18:00 +18°C° 0 mm 3 mps 735 mmHg 51%
    19:00 +17°C° 0 mm 2 mps 734 mmHg 57%
    20:00 +15°C° 0 mm 2 mps 734 mmHg 59%
    21:00 +14°C° 0 mm 2 mps 734 mmHg 61%
    22:00 +13°C° 0 mm 1 mps 734 mmHg 63%
    23:00 +12°C° 0 mm 1 mps 734 mmHg 65%

    Tomorrow, 22 April, Monday

    Time Temperature Precipitation Wind Pressure Humidity
    00:00 +11°C° 0 mm 1 mps 734 mmHg 66%
    01:00 +11°C° 0 mm 1 mps 734 mmHg 68%
    02:00 +10°C° 0 mm 1 mps 733 mmHg 71%
    03:00 +10°C° 0 mm 1 mps 733 mmHg 73%
    04:00 +9°C° 0 mm 1 mps 733 mmHg 76%
    05:00 +9°C° 0 mm 2 mps 732 mmHg 76%
    06:00 +9°C° 0 mm 2 mps 732 mmHg 75%
    07:00 +10°C° 0 mm 2 mps 731 mmHg 75%
    08:00 +13°C° 0 mm 2 mps 731 mmHg 68%
    09:00 +14°C° 0 mm 3 mps 730 mmHg 62%
    10:00 +17°C° 0 mm 4 mps 730 mmHg 56%
    11:00 +19°C° 0 mm 4 mps 729 mmHg 54%
    12:00 +20°C° 0 mm 4 mps 729 mmHg 51%
    13:00 +21°C° 0 mm 5 mps 728 mmHg 49%
    14:00 +22°C° 0 mm 5 mps 727 mmHg 49%
    15:00 +22°C° 0 mm 5 mps 727 mmHg 48%
    16:00 +22°C° 0 mm 5 mps 726 mmHg 48%
    17:00 +20°C° 0 mm 5 mps 726 mmHg 52%
    18:00 +19°C° 0 mm 4 mps 725 mmHg 56%
    19:00 +17°C° 0 mm 4 mps 725 mmHg 60%
    20:00 +15°C° 0 mm 4 mps 725 mmHg 60%
    21:00 +14°C° 0 mm 5 mps 725 mmHg 61%
    22:00 +13°C° 0 mm 5 mps 725 mmHg 61%
    23:00 +12°C° 0 mm 4 mps 725 mmHg 62%

    Day after tomorrow, 23 April, Tuesday

    Time Temperature Precipitation Wind Pressure Humidity
    00:00 +11°C° 0 mm 4 mps 724 mmHg 64%
    01:00 +10°C° 0 mm 3 mps 724 mmHg 66%
    02:00 +10°C° 0 mm 3 mps 724 mmHg 69%
    03:00 +9°C° 0 mm 2 mps 723 mmHg 72%
    04:00 +8°C° 0 mm 2 mps 723 mmHg 75%
    05:00 +9°C° 0 mm 2 mps 723 mmHg 77%
    06:00 +9°C° 0 mm 2 mps 723 mmHg 78%
    07:00 +10°C° 0 mm 2 mps 723 mmHg 79%
    08:00 +13°C° 0 mm 2 mps 722 mmHg 73%
    09:00 +15°C° 0 mm 2 mps 722 mmHg 67%
    10:00 +17°C° 0 mm 2 mps 722 mmHg 61%
    11:00 +19°C° 0 mm 2 mps 722 mmHg 56%
    12:00 +20°C° 0 mm 2 mps 722 mmHg 52%
    13:00 +23°C° 0 mm 1 mps 722 mmHg 47%
    14:00 +23°C° 0 mm 1 mps 721 mmHg 48%
    15:00 +23°C° 0 mm 1 mps 721 mmHg 49%
    16:00 +23°C° 0 mm 1 mps 721 mmHg 49%
    17:00 +21°C° 0 mm 1 mps 721 mmHg 56%
    18:00 +20°C° 0 mm 1 mps 721 mmHg 62%
    19:00 +19°C° 0 mm 1 mps 721 mmHg 69%
    20:00 +18°C° 0.1 mm 1 mps 721 mmHg 73%
    21:00 +16°C° 0.1 mm 1 mps 722 mmHg 77%
    22:00 +15°C° 0.1 mm 2 mps 722 mmHg 81%
    23:00 +14°C° 0.1 mm 2 mps 723 mmHg 82%

    24 April, Wednesday

    Time Temperature Precipitation Wind Pressure Humidity
    00:00 +14°C° 0.1 mm 2 mps 723 mmHg 82%
    01:00 +14°C° 0.1 mm 2 mps 724 mmHg 83%
    02:00 +14°C° 0 mm 2 mps 724 mmHg 83%
    03:00 +14°C° 0 mm 2 mps 724 mmHg 84%
    04:00 +14°C° 0 mm 2 mps 725 mmHg 84%
    05:00 +14°C° 0.2 mm 1 mps 725 mmHg 84%
    06:00 +14°C° 0.2 mm 1 mps 726 mmHg 84%
    07:00 +14°C° 0.2 mm 0 mps 726 mmHg 84%
    08:00 +14°C° 0.4 mm 0 mps 726 mmHg 82%
    09:00 +16°C° 0.4 mm 1 mps 727 mmHg 80%
    10:00 +16°C° 0.4 mm 1 mps 727 mmHg 78%
    11:00 +16°C° 0.9 mm 1 mps 727 mmHg 80%
    12:00 +16°C° 0.9 mm 2 mps 727 mmHg 81%
    13:00 +16°C° 0.9 mm 2 mps 728 mmHg 82%
    14:00 +15°C° 3.1 mm 2 mps 728 mmHg 84%
    15:00 +14°C° 3.1 mm 1 mps 728 mmHg 87%
    16:00 +13°C° 3.1 mm 1 mps 728 mmHg 89%
    17:00 +12°C° 1 mm 1 mps 729 mmHg 89%
    18:00 +12°C° 1 mm 2 mps 730 mmHg 90%
    19:00 +10°C° 1 mm 2 mps 731 mmHg 90%
    20:00 +10°C° 0 mm 2 mps 731 mmHg 90%
    21:00 +9°C° 0 mm 2 mps 731 mmHg 89%
    22:00 +9°C° 0 mm 2 mps 732 mmHg 89%
    23:00 +9°C° 0 mm 2 mps 732 mmHg 90%

    25 April, Thursday

    Time Temperature Precipitation Wind Pressure Humidity
    00:00 +9°C° 0 mm 2 mps 731 mmHg 90%
    01:00 +8°C° 0 mm 2 mps 731 mmHg 90%
    02:00 +8°C° 0 mm 2 mps 731 mmHg 90%
    03:00 +8°C° 0 mm 2 mps 731 mmHg 90%
    04:00 +8°C° 0 mm 2 mps 731 mmHg 89%
    05:00 +9°C° 0 mm 2 mps 731 mmHg 87%
    06:00 +10°C° 0 mm 2 mps 731 mmHg 85%
    07:00 +10°C° 0 mm 2 mps 731 mmHg 83%
    08:00 +14°C° 0 mm 2 mps 731 mmHg 75%
    09:00 +16°C° 0 mm 2 mps 731 mmHg 66%
    10:00 +18°C° 0 mm 2 mps 731 mmHg 58%
    11:00 +20°C° 0 mm 2 mps 731 mmHg 53%
    12:00 +21°C° 0 mm 2 mps 731 mmHg 49%
    13:00 +23°C° 0 mm 1 mps 731 mmHg 44%
    14:00 +23°C° 0.1 mm 1 mps 731 mmHg 45%
    15:00 +23°C° 0.1 mm 1 mps 730 mmHg 45%
    16:00 +23°C° 0.1 mm 1 mps 730 mmHg 45%
    17:00 +19°C° 0.5 mm 2 mps 731 mmHg 59%
    18:00 +15°C° 0.5 mm 4 mps 731 mmHg 73%
    19:00 +11°C° 0.5 mm 6 mps 731 mmHg 87%
    20:00 +10°C° 0.2 mm 5 mps 732 mmHg 87%
    21:00 +10°C° 0.2 mm 3 mps 733 mmHg 87%
    22:00 +9°C° 0.2 mm 2 mps 734 mmHg 88%
    23:00 +9°C° 0.4 mm 2 mps 734 mmHg 88%

    26 April, Friday

    Time Temperature Precipitation Wind Pressure Humidity
    00:00 +9°C° 0.4 mm 2 mps 734 mmHg 88%
    01:00 +9°C° 0.4 mm 2 mps 735 mmHg 88%
    02:00 +8°C° 0.1 mm 2 mps 735 mmHg 88%
    03:00 +8°C° 0.1 mm 2 mps 734 mmHg 88%
    04:00 +8°C° 0.1 mm 2 mps 734 mmHg 88%
    05:00 +8°C° 0.1 mm 2 mps 735 mmHg 88%
    06:00 +8°C° 0.1 mm 2 mps 735 mmHg 87%
    07:00 +8°C° 0.1 mm 2 mps 735 mmHg 87%
    08:00 +8°C° 0.6 mm 3 mps 736 mmHg 87%
    09:00 +8°C° 0.6 mm 4 mps 736 mmHg 86%
    10:00 +8°C° 0.6 mm 4 mps 737 mmHg 86%
    11:00 +8°C° 0.4 mm 4 mps 737 mmHg 81%
    12:00 +9°C° 0.4 mm 5 mps 737 mmHg 76%
    13:00 +10°C° 0.4 mm 5 mps 737 mmHg 71%
    14:00 +10°C° 0.4 mm 5 mps 738 mmHg 69%
    15:00 +10°C° 0.4 mm 5 mps 738 mmHg 66%
    16:00 +12°C° 0.4 mm 5 mps 738 mmHg 64%
    17:00 +10°C° 0.1 mm 5 mps 738 mmHg 67%
    18:00 +10°C° 0.1 mm 4 mps 739 mmHg 70%
    19:00 +9°C° 0.1 mm 3 mps 740 mmHg 73%
    20:00 +8°C° 0 mm 3 mps 740 mmHg 77%
    21:00 +7°C° 0 mm 3 mps 741 mmHg 80%
    22:00 +5°C° 0 mm 3 mps 741 mmHg 83%
    23:00 +5°C° 0 mm 3 mps 742 mmHg 84%
    Show more